Location: Newark
(21.0333°N, 105.8500°E)
Time: 20:49:31
(UTC+00:00)

Envisat - Pass Details

Date: 08 December 2019
Orbit: 764 x 766 km, 98.1° (Epoch: 28 January)

Event Time Altitude Azimuth Distance (km) Brightness Sun altitude
Rises 22:42:58 0° 31° (NNE) 3,224 6.4 -9.2°
Reaches altitude 10° 22:45:43 10° 46° (NE) 2,296 5.8 -8.6°
Maximum altitude 22:49:41 23° 98° (E) 1,567 5.7 -7.7°
Drops below altitude 10° 22:53:39 10° 150° (SSE) 2,289 6.3 -6.9°
Sets 22:56:23 0° 164° (SSE) 3,212 6.8 -6.3°
